Location: Dammartin
(48.9032°N, 1.6195°E)
Time: 10:25:12
(UTC+00:00)

Cosmos 2315 Rocket - Pass Details

Date: 03 February 2023
Orbit: 965 x 1002 km, 82.9° (Epoch: 28 March)

Event Time Altitude Azimuth Distance (km) Brightness Sun altitude
Rises 18:48:07 0° 159° (SSE) 3,692 6.9 -18.9°
Reaches altitude 10° 18:50:48 10° 151° (SSE) 2,752 6.1 -19.4°
Maximum altitude 18:56:29 37° 87° (E) 1,520 4.5 -20.3°
Drops below altitude 10° 19:02:14 10° 23° (NNE) 2,785 6.1 -21.3°
Sets 19:04:57 0° 16° (NNE) 3,741 6.9 -21.7°
